QPF
0.03 0.02 0.02 0.02 0.04 0.05 0.05 0.05 0.05 0.05 0.03 0.02 0.01 0.01 0.00 0.00 0.00 0.00 0.00 0.00 0.00 0.00 0.00 0.00 0.00 0.00 0.00 0.00 0.00 0.00 0.00 0.00 0.00 0.01 0.01 0.01 0.01 0.01 0.02 0.02 0.01 0.01 0.01 0.01
0.02 0.02 0.01 0.01 0.02 0.03 0.04 0.04 0.03 0.03 0.03 0.03 0.02 0.01 0.01 0.00 0.01 0.00 0.00 0.00 0.00 0.00 0.00 0.00 0.00 0.00 0.00 0.00 0.00 0.00 0.00 0.00 0.00 0.01 0.01 0.02 0.02 0.02 0.01 0.01 0.01 0.01 0.01 0.01
0.02 0.02 0.02 0.02 0.04 0.04 0.04 0.04 0.04 0.04 0.04 0.02 0.02 0.02 0.02 0.01 0.01 0.01 0.01 0.00 0.00 0.00 0.00 0.00 0.00 0.01 0.01 0.01 0.01 0.01 0.01 0.01 0.01 0.01 0.01 0.02 0.02 0.02 0.02 0.02 0.02 0.02 0.02 0.02
0.03 0.02 0.03 0.03 0.04 0.04 0.05 0.05 0.04 0.04 0.03 0.02 0.01 0.01 0.01 0.01 0.01 0.01 0.01 0.00 0.00 0.00 0.00 0.00 0.00 0.01 0.01 0.02 0.02 0.03 0.03 0.02 0.02 0.02 0.02 0.02 0.03 0.03 0.03 0.02 0.02 0.03 0.03 0.03
0.04 0.03 0.03 0.02 0.02 0.03 0.04 0.04 0.04 0.04 0.04 0.03 0.02 0.01 0.01 0.01 0.01 0.01 0.01 0.00 0.00 0.00 0.00 0.00 0.00 0.00 0.01 0.02 0.03 0.03 0.03 0.03 0.03 0.04 0.04 0.04 0.04 0.04 0.03 0.03 0.03 0.03 0.02 0.02
0.04 0.03 0.02 0.02 0.01 0.02 0.03 0.04 0.03 0.03 0.04 0.04 0.03 0.03 0.02 0.01 0.01 0.01 0.01 0.01 0.01 0.01 0.00 0.00 0.00 0.00 0.01 0.01 0.02 0.03 0.03 0.04 0.04 0.03 0.03 0.03 0.04 0.04 0.04 0.03 0.03 0.03 0.02 0.02
0.03 0.03 0.02 0.01 0.01 0.01 0.03 0.04 0.03 0.03 0.03 0.03 0.03 0.03 0.03 0.02 0.01 0.01 0.01 0.01 0.01 0.01 0.01 0.00 0.01 0.01 0.01 0.01 0.01 0.02 0.02 0.03 0.03 0.03 0.03 0.03 0.03 0.03 0.02 0.02 0.02 0.02 0.02 0.02
0.03 0.03 0.02 0.01 0.01 0.02 0.03 0.02 0.02 0.02 0.02 0.02 0.02 0.02 0.02 0.02 0.01 0.01 0.01 0.01 0.01 0.01 0.01 0.01 0.01 0.01 0.01 0.01 0.01 0.01 0.01 0.01 0.01 0.01 0.01 0.02 0.02 0.02 0.02 0.02 0.02 0.02 0.02 0.02
0.03 0.03 0.02 0.02 0.02 0.03 0.02 0.02 0.02 0.02 0.02 0.01 0.01 0.02 0.02 0.02 0.01 0.01 0.01 0.01 0.01 0.01 0.02 0.02 0.03 0.02 0.02 0.01 0.01 0.01 0.01 0.01 0.01 0.01 0.01 0.01 0.02 0.02 0.01 0.01 0.02 0.02 0.02 0.02
0.02 0.02 0.02 0.02 0.02 0.02 0.02 0.02 0.02 0.02 0.02 0.02 0.02 0.02 0.02 0.02 0.02 0.02 0.02 0.01 0.01 0.01 0.01 0.02 0.03 0.04 0.04 0.02 0.01 0.01 0.00 0.01 0.01 0.01 0.01 0.02 0.02 0.02 0.02 0.02 0.02 0.02 0.02 0.02
0.02 0.02 0.01 0.02 0.02 0.02 0.02 0.02 0.01 0.01 0.02 0.02 0.02 0.02 0.03 0.04 0.04 0.04 0.03 0.03 0.02 0.02 0.02 0.02 0.02 0.02 0.03 0.04 0.03 0.03 0.02 0.02 0.01 0.01 0.01 0.02 0.02 0.02 0.02 0.02 0.02 0.02 0.03 0.03
0.03 0.02 0.02 0.02 0.02 0.02 0.02 0.02 0.02 0.02 0.02 0.02 0.02 0.02 0.03 0.03 0.04 0.03 0.03 0.03 0.02 0.02 0.03 0.03 0.02 0.02 0.02 0.02 0.03 0.03 0.02 0.02 0.02 0.02 0.03 0.03 0.03 0.03 0.03 0.03 0.02 0.02 0.02 0.02
0.03 0.03 0.02 0.02 0.02 0.01 0.01 0.02 0.01 0.01 0.02 0.02 0.02 0.02 0.02 0.02 0.02 0.02 0.02 0.02 0.02 0.03 0.03 0.03 0.03 0.03 0.02 0.02 0.02 0.03 0.02 0.02 0.02 0.02 0.02 0.03 0.03 0.03 0.03 0.03 0.03 0.03 0.03 0.03
0.02 0.02 0.02 0.02 0.02 0.01 0.01 0.01 0.01 0.01 0.01 0.01 0.01 0.01 0.01 0.01 0.01 0.01 0.02 0.02 0.02 0.02 0.02 0.03 0.02 0.03 0.03 0.02 0.02 0.02 0.02 0.01 0.01 0.01 0.02 0.02 0.03 0.03 0.03 0.03 0.03 0.03 0.02 0.02
0.02 0.02 0.02 0.02 0.01 0.01 0.01 0.01 0.00 0.00 0.00 0.01 0.01 0.01 0.01 0.01 0.01 0.01 0.01 0.02 0.02 0.02 0.02 0.02 0.02 0.02 0.02 0.02 0.02 0.02 0.01 0.01 0.01 0.02 0.02 0.02 0.02 0.02 0.02 0.02 0.02 0.02 0.02 0.02
0.02 0.02 0.01 0.01 0.01 0.02 0.02 0.01 0.00 0.00 0.00 0.00 0.00 0.00 0.00 0.00 0.00 0.01 0.01 0.01 0.01 0.01 0.02 0.02 0.02 0.02 0.02 0.02 0.02 0.02 0.02 0.02 0.02 0.02 0.02 0.02 0.02 0.02 0.02 0.02 0.02 0.02 0.01 0.01
0.03 0.02 0.02 0.01 0.02 0.02 0.03 0.02 0.01 0.01 0.01 0.01 0.01 0.00 0.00 0.00 0.00 0.01 0.01 0.01 0.01 0.01 0.01 0.01 0.02 0.02 0.02 0.02 0.02 0.02 0.02 0.03 0.03 0.02 0.02 0.02 0.02 0.02 0.02 0.01 0.02 0.01 0.01 0.01
0.04 0.03 0.02 0.02 0.02 0.02 0.03 0.03 0.03 0.02 0.01 0.01 0.01 0.01 0.00 0.01 0.01 0.01 0.01 0.01 0.01 0.01 0.01 0.01 0.01 0.01 0.01 0.02 0.02 0.02 0.02 0.02 0.02 0.02 0.02 0.01 0.01 0.01 0.01 0.01 0.01 0.01 0.01 0.01
0.03 0.03 0.02 0.02 0.02 0.02 0.02 0.03 0.03 0.03 0.03 0.02 0.01 0.01 0.01 0.01 0.01 0.01 0.01 0.01 0.01 0.01 0.01 0.01 0.01 0.01 0.01 0.01 0.01 0.01 0.01 0.01 0.01 0.01 0.01 0.01 0.01 0.01 0.01 0.01 0.01 0.01 0.01 0.01
0.02 0.02 0.02 0.02 0.02 0.02 0.02 0.03 0.03 0.03 0.02 0.02 0.01 0.01 0.01 0.01 0.01 0.01 0.01 0.01 0.01 0.02 0.01 0.01 0.01 0.01 0.01 0.01 0.01 0.01 0.01 0.01 0.01 0.01 0.01 0.01 0.01 0.01 0.01 0.01 0.01 0.01 0.01 0.01
0.02 0.02 0.02 0.02 0.02 0.02 0.03 0.02 0.02 0.02 0.02 0.01 0.01 0.01 0.02 0.02 0.02 0.01 0.01 0.01 0.02 0.02 0.02 0.01 0.01 0.01 0.01 0.01 0.01 0.01 0.01 0.01 0.01 0.01 0.01 0.01 0.01 0.01 0.01 0.01 0.01 0.01 0.01 0.01
0.02 0.02 0.02 0.02 0.02 0.02 0.03 0.03 0.02 0.02 0.02 0.01 0.01 0.01 0.01 0.01 0.01 0.01 0.01 0.02 0.02 0.02 0.02 0.01 0.01 0.01 0.01 0.01 0.01 0.01 0.01 0.01 0.01 0.01 0.01 0.01 0.01 0.01 0.01 0.01 0.01 0.01 0.01 0.01
0.02 0.02 0.02 0.02 0.02 0.03 0.03 0.03 0.02 0.02 0.02 0.01 0.01 0.01 0.01 0.01 0.01 0.01 0.01 0.02 0.02 0.01 0.01 0.01 0.01 0.01 0.01 0.01 0.01 0.01 0.01 0.01 0.01 0.01 0.01 0.01 0.01 0.01 0.01 0.01 0.01 0.01 0.01 0.02
0.02 0.02 0.02 0.02 0.02 0.02 0.02 0.02 0.02 0.02 0.02 0.02 0.02 0.01 0.01 0.01 0.01 0.01 0.01 0.02 0.01 0.01 0.01 0.01 0.01 0.01 0.01 0.01 0.01 0.01 0.01 0.01 0.00 0.00 0.01 0.01 0.01 0.01 0.01 0.01 0.01 0.01 0.02 0.02
0.02 0.02 0.02 0.02 0.02 0.02 0.02 0.02 0.02 0.02 0.02 0.02 0.02 0.02 0.01 0.01 0.01 0.02 0.01 0.01 0.01 0.01 0.01 0.01 0.01 0.01 0.01 0.01 0.01 0.01 0.00 0.00 0.00 0.01 0.01 0.01 0.01 0.01 0.02 0.02 0.02 0.02 0.02 0.03
0.02 0.02 0.02 0.02 0.02 0.02 0.02 0.02 0.02 0.02 0.02 0.02 0.02 0.02 0.01 0.01 0.01 0.01 0.01 0.01 0.01 0.01 0.01 0.01 0.01 0.01 0.01 0.01 0.01 0.01 0.01 0.00 0.00 0.00 0.00 0.01 0.01 0.01 0.01 0.02 0.02 0.03 0.03 0.03
0.02 0.02 0.02 0.02 0.02 0.02 0.02 0.01 0.01 0.02 0.01 0.01 0.01 0.01 0.01 0.01 0.01 0.01 0.01 0.01 0.01 0.01 0.01 0.01 0.01 0.01 0.01 0.01 0.01 0.00 0.00 0.00 0.00 0.00 0.00 0.00 0.01 0.01 0.01 0.01 0.02 0.02 0.02 0.02
MSLP
1018.32 1017.49 1016.63 1015.79 1014.99 1014.27 1013.68 1013.24 1013.00 1012.97 1013.15 1013.54 1014.09 1014.73 1015.39 1015.99 1016.46 1016.73 1016.77 1016.58 1016.16 1015.58 1014.89 1014.14 1013.40 1012.70 1012.05 1011.45 1010.88 1010.32 1009.75 1009.16 1008.56 1007.97 1007.44 1007.00 1006.71 1006.59 1006.66 1006.92 1007.35 1007.92 1008.59 1009.33
1019.53 1018.80 1018.00 1017.18 1016.36 1015.60 1014.95 1014.45 1014.17 1014.10 1014.27 1014.66 1015.21 1015.87 1016.54 1017.13 1017.58 1017.82 1017.82 1017.58 1017.12 1016.50 1015.79 1015.04 1014.31 1013.63 1013.01 1012.46 1011.93 1011.41 1010.88 1010.31 1009.72 1009.13 1008.58 1008.11 1007.77 1007.59 1007.60 1007.78 1008.14 1008.65 1009.27 1009.97
1020.64 1020.01 1019.29 1018.51 1017.71 1016.95 1016.27 1015.75 1015.43 1015.33 1015.47 1015.83 1016.36 1016.98 1017.61 1018.16 1018.57 1018.76 1018.72 1018.44 1017.95 1017.32 1016.61 1015.87 1015.16 1014.51 1013.93 1013.42 1012.95 1012.48 1011.99 1011.47 1010.92 1010.36 1009.82 1009.35 1008.99 1008.78 1008.73 1008.87 1009.17 1009.61 1010.18 1010.83
1021.63 1021.07 1020.42 1019.69 1018.92 1018.17 1017.51 1016.98 1016.64 1016.52 1016.62 1016.93 1017.40 1017.96 1018.52 1019.01 1019.36 1019.50 1019.42 1019.12 1018.62 1018.00 1017.30 1016.59 1015.91 1015.30 1014.77 1014.31 1013.88 1013.47 1013.03 1012.57 1012.07 1011.56 1011.06 1010.62 1010.28 1010.06 1010.00 1010.10 1010.35 1010.74 1011.25 1011.85
1022.46 1021.94 1021.32 1020.63 1019.91 1019.21 1018.57 1018.06 1017.72 1017.57 1017.63 1017.88 1018.28 1018.75 1019.23 1019.65 1019.92 1020.02 1019.91 1019.60 1019.12 1018.52 1017.85 1017.19 1016.56 1015.99 1015.50 1015.08 1014.70 1014.34 1013.96 1013.56 1013.12 1012.68 1012.24 1011.85 1011.55 1011.36 1011.30 1011.39 1011.62 1011.97 1012.43 1012.98
1023.13 1022.61 1022.01 1021.36 1020.69 1020.04 1019.45 1018.97 1018.64 1018.48 1018.50 1018.68 1018.99 1019.37 1019.76 1020.09 1020.30 1020.34 1020.21 1019.91 1019.46 1018.90 1018.29 1017.68 1017.10 1016.58 1016.14 1015.75 1015.41 1015.09 1014.76 1014.41 1014.05 1013.67 1013.31 1013.00 1012.75 1012.61 1012.58 1012.68 1012.90 1013.23 1013.66 1014.16
1023.64 1023.10 1022.52 1021.91 1021.30 1020.72 1020.19 1019.76 1019.45 1019.28 1019.26 1019.37 1019.60 1019.88 1020.16 1020.40 1020.54 1020.54 1020.40 1020.11 1019.69 1019.19 1018.64 1018.09 1017.56 1017.09 1016.68 1016.33 1016.02 1015.73 1015.44 1015.15 1014.84 1014.54 1014.26 1014.02 1013.85 1013.77 1013.79 1013.91 1014.14 1014.47 1014.88 1015.35
1023.99 1023.46 1022.91 1022.36 1021.83 1021.32 1020.87 1020.49 1020.20 1020.03 1019.97 1020.02 1020.15 1020.33 1020.51 1020.65 1020.72 1020.69 1020.53 1020.25 1019.88 1019.43 1018.94 1018.45 1017.98 1017.56 1017.18 1016.85 1016.56 1016.29 1016.04 1015.79 1015.54 1015.31 1015.10 1014.94 1014.85 1014.83 1014.90 1015.06 1015.32 1015.65 1016.05 1016.50
1024.24 1023.74 1023.26 1022.79 1022.34 1021.92 1021.55 1021.22 1020.97 1020.79 1020.69 1020.67 1020.71 1020.79 1020.87 1020.93 1020.92 1020.85 1020.68 1020.42 1020.08 1019.68 1019.25 1018.81 1018.39 1018.00 1017.65 1017.33 1017.06 1016.81 1016.58 1016.37 1016.18 1016.01 1015.87 1015.78 1015.75 1015.80 1015.92 1016.13 1016.40 1016.74 1017.14 1017.58
1024.42 1024.00 1023.61 1023.24 1022.90 1022.57 1022.27 1022.00 1021.76 1021.57 1021.43 1021.35 1021.30 1021.28 1021.27 1021.25 1021.18 1021.06 1020.88 1020.64 1020.33 1019.97 1019.58 1019.19 1018.81 1018.44 1018.11 1017.81 1017.55 1017.31 1017.11 1016.93 1016.78 1016.67 1016.59 1016.57 1016.60 1016.70 1016.87 1017.11 1017.41 1017.76 1018.17 1018.60
1024.57 1024.28 1024.00 1023.75 1023.50 1023.26 1023.02 1022.78 1022.56 1022.35 1022.17 1022.01 1021.89 1021.79 1021.70 1021.61 1021.50 1021.35 1021.16 1020.92 1020.63 1020.30 1019.95 1019.59 1019.23 1018.88 1018.57 1018.28 1018.03 1017.81 1017.63 1017.49 1017.38 1017.32 1017.30 1017.33 1017.42 1017.57 1017.78 1018.05 1018.36 1018.73 1019.13 1019.56
1024.75 1024.59 1024.44 1024.29 1024.13 1023.95 1023.74 1023.52 1023.29 1023.05 1022.82 1022.61 1022.43 1022.26 1022.12 1021.98 1021.83 1021.67 1021.47 1021.24 1020.97 1020.66 1020.33 1019.98 1019.64 1019.31 1019.00 1018.73 1018.49 1018.30 1018.16 1018.05 1018.00 1017.99 1018.03 1018.11 1018.25 1018.44 1018.68 1018.97 1019.30 1019.67 1020.07 1020.50
1024.96 1024.93 1024.88 1024.81 1024.70 1024.55 1024.35 1024.11 1023.85 1023.57 1023.30 1023.05 1022.82 1022.62 1022.45 1022.29 1022.14 1021.97 1021.79 1021.56 1021.30 1021.01 1020.69 1020.36 1020.02 1019.70 1019.40 1019.14 1018.93 1018.78 1018.67 1018.63 1018.63 1018.68 1018.78 1018.93 1019.12 1019.35 1019.61 1019.92 1020.26 1020.63 1021.03 1021.45
1025.21 1025.26 1025.28 1025.25 1025.15 1024.99 1024.76 1024.48 1024.17 1023.85 1023.55 1023.26 1023.02 1022.81 1022.65 1022.50 1022.37 1022.22 1022.05 1021.85 1021.61 1021.32 1021.01 1020.68 1020.34 1020.03 1019.75 1019.52 1019.34 1019.23 1019.19 1019.21 1019.29 1019.42 1019.59 1019.80 1020.04 1020.31 1020.61 1020.93 1021.27 1021.64 1022.02 1022.43
1025.46 1025.56 1025.60 1025.56 1025.43 1025.21 1024.93 1024.59 1024.22 1023.86 1023.52 1023.23 1023.00 1022.82 1022.68 1022.58 1022.49 1022.39 1022.26 1022.08 1021.86 1021.59 1021.28 1020.95 1020.62 1020.32 1020.06 1019.86 1019.73 1019.69 1019.72 1019.82 1019.98 1020.20 1020.45 1020.73 1021.03 1021.34 1021.67 1022.00 1022.34 1022.70 1023.07 1023.46
1025.70 1025.80 1025.81 1025.71 1025.51 1025.21 1024.84 1024.43 1024.00 1023.60 1023.25 1022.97 1022.77 1022.64 1022.57 1022.53 1022.51 1022.47 1022.39 1022.25 1022.06 1021.80 1021.51 1021.19 1020.87 1020.59 1020.36 1020.21 1020.14 1020.17 1020.29 1020.48 1020.74 1021.04 1021.38 1021.73 1022.09 1022.44 1022.79 1023.13 1023.47 1023.81 1024.16 1024.51
1025.89 1025.94 1025.88 1025.70 1025.40 1025.01 1024.55 1024.06 1023.59 1023.16 1022.81 1022.55 1022.40 1022.34 1022.34 1022.39 1022.45 1022.48 1022.47 1022.38 1022.22 1022.00 1021.73 1021.43 1021.14 1020.89 1020.70 1020.60 1020.61 1020.72 1020.92 1021.21 1021.56 1021.96 1022.37 1022.79 1023.20 1023.58 1023.94 1024.29 1024.61 1024.93 1025.24 1025.55
1026.02 1026.00 1025.85 1025.57 1025.17 1024.68 1024.14 1023.59 1023.07 1022.62 1022.28 1022.07 1021.97 1021.99 1022.08 1022.21 1022.36 1022.47 1022.53 1022.50 1022.39 1022.21 1021.97 1021.71 1021.46 1021.26 1021.13 1021.09 1021.17 1021.36 1021.65 1022.03 1022.46 1022.93 1023.41 1023.87 1024.31 1024.71 1025.08 1025.40 1025.70 1025.98 1026.24 1026.50
1026.09 1025.98 1025.75 1025.38 1024.89 1024.33 1023.71 1023.11 1022.57 1022.12 1021.80 1021.62 1021.58 1021.67 1021.84 1022.05 1022.28 1022.47 1022.60 1022.64 1022.59 1022.46 1022.28 1022.08 1021.88 1021.74 1021.67 1021.71 1021.86 1022.13 1022.49 1022.93 1023.42 1023.94 1024.45 1024.94 1025.38 1025.78 1026.12 1026.41 1026.67 1026.90 1027.11 1027.30
1026.10 1025.93 1025.63 1025.20 1024.65 1024.02 1023.37 1022.74 1022.18 1021.74 1021.44 1021.29 1021.30 1021.45 1021.68 1021.96 1022.26 1022.51 1022.71 1022.82 1022.84 1022.78 1022.66 1022.53 1022.41 1022.33 1022.34 1022.45 1022.67 1022.99 1023.40 1023.89 1024.41 1024.94 1025.45 1025.93 1026.35 1026.71 1027.01 1027.25 1027.45 1027.61 1027.76 1027.89
1026.08 1025.88 1025.54 1025.07 1024.50 1023.85 1023.18 1022.55 1021.99 1021.56 1021.28 1021.15 1021.20 1021.37 1021.65 1021.97 1022.32 1022.63 1022.88 1023.05 1023.14 1023.16 1023.12 1023.06 1023.02 1023.03 1023.11 1023.28 1023.55 1023.91 1024.35 1024.84 1025.36 1025.87 1026.35 1026.78 1027.15 1027.45 1027.68 1027.86 1027.99 1028.09 1028.17 1028.24
1026.05 1025.85 1025.51 1025.04 1024.47 1023.84 1023.18 1022.56 1022.02 1021.60 1021.33 1021.23 1021.28 1021.47 1021.77 1022.12 1022.48 1022.83 1023.13 1023.36 1023.51 1023.60 1023.64 1023.66 1023.70 1023.78 1023.92 1024.14 1024.45 1024.82 1025.26 1025.73 1026.21 1026.67 1027.09 1027.45 1027.75 1027.97 1028.13 1028.23 1028.30 1028.33 1028.35 1028.36
1026.02 1025.84 1025.53 1025.10 1024.57 1023.97 1023.35 1022.77 1022.25 1021.86 1021.61 1021.51 1021.57 1021.76 1022.05 1022.40 1022.78 1023.14 1023.47 1023.73 1023.94 1024.09 1024.20 1024.29 1024.40 1024.53 1024.72 1024.98 1025.29 1025.66 1026.07 1026.50 1026.92 1027.31 1027.65 1027.93 1028.13 1028.27 1028.35 1028.38 1028.38 1028.35 1028.32 1028.28
1025.98 1025.85 1025.59 1025.22 1024.75 1024.21 1023.65 1023.12 1022.66 1022.30 1022.07 1021.98 1022.04 1022.22 1022.49 1022.83 1023.20 1023.56 1023.90 1024.19 1024.42 1024.62 1024.78 1024.93 1025.08 1025.25 1025.47 1025.73 1026.04 1026.38 1026.74 1027.10 1027.45 1027.76 1028.01 1028.19 1028.31 1028.37 1028.38 1028.34 1028.28 1028.21 1028.13 1028.05
1025.89 1025.82 1025.63 1025.33 1024.94 1024.49 1024.01 1023.56 1023.16 1022.85 1022.66 1022.59 1022.65 1022.83 1023.09 1023.40 1023.75 1024.10 1024.43 1024.72 1024.97 1025.18 1025.37 1025.54 1025.71 1025.90 1026.12 1026.37 1026.64 1026.94 1027.24 1027.53 1027.79 1028.01 1028.18 1028.28 1028.33 1028.31 1028.25 1028.17 1028.06 1027.94 1027.83 1027.72
1025.73 1025.71 1025.59 1025.38 1025.08 1024.72 1024.34 1023.99 1023.67 1023.44 1023.31 1023.28 1023.36 1023.54 1023.79 1024.09 1024.41 1024.73 1025.04 1025.32 1025.56 1025.76 1025.95 1026.11 1026.28 1026.46 1026.65 1026.86 1027.09 1027.33 1027.56 1027.78 1027.97 1028.11 1028.20 1028.23 1028.21 1028.14 1028.03 1027.90 1027.75 1027.60 1027.46 1027.33
1025.44 1025.47 1025.41 1025.28 1025.07 1024.83 1024.57 1024.33 1024.13 1023.99 1023.94 1023.97 1024.09 1024.28 1024.53 1024.82 1025.12 1025.42 1025.69 1025.94 1026.15 1026.33 1026.48 1026.62 1026.76 1026.90 1027.05 1027.21 1027.38 1027.56 1027.72 1027.87 1027.98 1028.06 1028.08 1028.06 1027.99 1027.87 1027.73 1027.56 1027.38 1027.20 1027.02 1026.85
Thickness
5444 5452 5456 5461 5467 5472 5477 5482 5485 5495 5501 5513 5512 5512 5513 5514 5518 5521 5524 5527 5528 5528 5528 5529 5531 5532 5533 5534 5535 5535 5535 5534 5533 5533 5532 5532 5531 5530 5528 5527 5525 5522 5520 5516
5436 5445 5450 5453 5459 5465 5472 5475 5482 5489 5493 5500 5498 5500 5500 5501 5506 5510 5512 5514 5515 5516 5516 5517 5518 5519 5520 5520 5521 5522 5522 5521 5521 5521 5520 5520 5518 5517 5516 5514 5512 5510 5507 5505
5423 5431 5441 5441 5449 5455 5460 5465 5472 5480 5486 5484 5487 5490 5490 5491 5495 5498 5499 5501 5502 5503 5504 5505 5506 5507 5507 5508 5508 5508 5509 5509 5509 5509 5508 5507 5506 5504 5503 5501 5500 5497 5495 5493
5409 5418 5419 5439 5442 5446 5451 5456 5461 5468 5472 5475 5479 5479 5478 5480 5482 5485 5488 5489 5490 5491 5492 5493 5494 5495 5495 5496 5496 5495 5495 5496 5496 5496 5495 5494 5493 5491 5490 5489 5487 5485 5483 5480
5396 5400 5414 5430 5432 5434 5438 5445 5448 5453 5458 5461 5466 5467 5467 5468 5471 5474 5475 5477 5478 5479 5480 5481 5482 5483 5483 5483 5483 5482 5483 5483 5483 5483 5483 5481 5480 5479 5477 5476 5474 5472 5470 5468
5387 5395 5405 5420 5424 5428 5433 5436 5439 5441 5444 5446 5453 5457 5458 5458 5459 5461 5463 5465 5466 5467 5468 5468 5469 5470 5471 5470 5470 5470 5471 5471 5471 5471 5470 5469 5468 5466 5465 5463 5462 5460 5458 5456
5377 5382 5395 5405 5411 5423 5421 5423 5428 5430 5433 5436 5440 5445 5445 5445 5446 5448 5450 5451 5453 5454 5454 5455 5456 5458 5458 5458 5458 5459 5459 5459 5459 5458 5457 5457 5455 5454 5453 5451 5449 5447 5445 5444
5367 5373 5386 5396 5401 5405 5408 5412 5415 5418 5422 5424 5426 5429 5430 5432 5433 5435 5436 5437 5439 5440 5441 5441 5443 5445 5446 5445 5446 5447 5447 5446 5445 5445 5444 5444 5442 5441 5440 5438 5436 5434 5432 5431
5368 5375 5380 5384 5389 5394 5397 5399 5403 5406 5409 5411 5413 5414 5417 5418 5419 5421 5423 5424 5426 5427 5428 5428 5430 5432 5432 5432 5433 5434 5433 5433 5432 5431 5430 5430 5429 5428 5427 5425 5424 5422 5421 5420
5362 5368 5371 5374 5377 5381 5385 5388 5392 5395 5397 5400 5400 5402 5404 5406 5407 5408 5409 5410 5412 5413 5414 5415 5416 5418 5419 5420 5421 5421 5420 5419 5418 5417 5417 5416 5415 5415 5414 5413 5411 5411 5410 5409
5353 5360 5365 5369 5370 5372 5375 5377 5380 5383 5385 5387 5389 5391 5392 5393 5394 5395 5397 5398 5399 5401 5402 5402 5404 5405 5407 5407 5408 5407 5407 5406 5405 5404 5403 5402 5402 5401 5401 5401 5401 5401 5400 5398
5350 5354 5355 5359 5362 5363 5365 5367 5369 5371 5373 5375 5378 5379 5380 5380 5381 5383 5384 5386 5387 5388 5389 5390 5391 5392 5394 5395 5395 5395 5394 5393 5392 5391 5391 5390 5389 5389 5389 5390 5391 5391 5390 5389
5343 5346 5347 5351 5352 5354 5355 5357 5359 5361 5362 5364 5365 5367 5368 5369 5369 5370 5372 5374 5375 5376 5377 5377 5378 5379 5381 5382 5383 5383 5382 5381 5381 5380 5379 5378 5378 5378 5377 5378 5379 5379 5379 5379
5336 5338 5341 5343 5343 5344 5346 5348 5349 5350 5351 5353 5354 5355 5356 5357 5357 5358 5359 5361 5362 5363 5364 5365 5366 5367 5368 5369 5370 5371 5370 5370 5369 5368 5367 5367 5366 5366 5366 5366 5366 5366 5367 5368
5329 5331 5333 5333 5334 5335 5337 5338 5339 5339 5340 5341 5342 5344 5345 5345 5346 5346 5347 5349 5350 5351 5352 5353 5354 5355 5356 5358 5359 5359 5359 5358 5358 5357 5357 5356 5356 5355 5354 5354 5354 5354 5354 5355
5323 5324 5325 5325 5325 5326 5327 5328 5328 5329 5329 5330 5331 5332 5332 5333 5334 5334 5335 5337 5338 5339 5340 5341 5342 5343 5345 5347 5347 5348 5348 5348 5348 5347 5346 5346 5345 5344 5343 5343 5343 5343 5343 5343
5316 5317 5317 5317 5317 5317 5317 5318 5319 5319 5319 5320 5320 5321 5322 5322 5323 5323 5324 5325 5327 5328 5329 5330 5331 5333 5334 5336 5336 5337 5337 5337 5338 5336 5335 5335 5335 5334 5334 5334 5334 5333 5334 5334
5309 5311 5311 5311 5310 5310 5309 5310 5310 5310 5310 5311 5311 5311 5311 5312 5312 5312 5313 5315 5317 5318 5320 5321 5322 5324 5325 5326 5326 5327 5327 5326 5326 5326 5326 5325 5325 5325 5325 5325 5325 5325 5325 5326
5302 5302 5302 5303 5302 5302 5301 5302 5302 5301 5302 5302 5302 5301 5301 5300 5301 5302 5303 5305 5307 5308 5310 5312 5315 5315 5316 5317 5318 5318 5318 5317 5317 5317 5317 5318 5317 5316 5316 5316 5316 5316 5316 5317
5294 5293 5293 5293 5293 5293 5292 5293 5293 5292 5293 5293 5293 5292 5291 5291 5292 5293 5294 5295 5297 5298 5301 5303 5305 5306 5307 5308 5309 5309 5309 5309 5308 5308 5308 5308 5308 5308 5308 5308 5308 5308 5308 5308
5285 5284 5284 5283 5283 5283 5283 5283 5284 5284 5284 5284 5284 5283 5283 5283 5284 5284 5285 5286 5289 5291 5293 5295 5296 5297 5298 5299 5301 5300 5300 5300 5299 5299 5299 5299 5299 5299 5299 5300 5300 5300 5301 5301
5276 5276 5275 5274 5274 5274 5274 5273 5274 5274 5274 5274 5274 5274 5275 5275 5275 5276 5277 5278 5281 5283 5285 5286 5287 5289 5291 5292 5292 5291 5291 5291 5291 5291 5291 5291 5291 5291 5292 5292 5293 5293 5293 5293
5269 5268 5267 5266 5265 5265 5264 5264 5264 5265 5264 5264 5265 5265 5266 5266 5267 5268 5270 5271 5273 5275 5276 5277 5279 5281 5283 5282 5282 5282 5282 5282 5282 5282 5282 5283 5283 5283 5284 5285 5285 5286 5286 5286
5261 5260 5259 5257 5257 5256 5255 5255 5255 5255 5255 5256 5256 5256 5257 5258 5259 5260 5261 5263 5265 5267 5267 5269 5271 5273 5273 5272 5272 5272 5272 5273 5273 5273 5274 5275 5275 5276 5276 5277 5278 5278 5278 5279
5253 5252 5251 5250 5250 5249 5248 5247 5247 5247 5247 5247 5247 5248 5249 5249 5250 5251 5252 5254 5256 5258 5258 5260 5262 5263 5262 5262 5262 5263 5264 5264 5265 5266 5267 5267 5267 5268 5268 5269 5270 5270 5271 5271
5246 5245 5244 5243 5242 5242 5241 5241 5240 5240 5240 5240 5240 5240 5241 5242 5243 5243 5244 5245 5247 5249 5249 5250 5251 5252 5253 5253 5254 5255 5255 5256 5257 5257 5258 5258 5259 5260 5260 5261 5262 5263 5264 5265
5238 5237 5236 5236 5235 5235 5235 5234 5234 5233 5233 5233 5233 5234 5234 5235 5236 5236 5237 5238 5239 5240 5241 5242 5243 5244 5245 5246 5246 5247 5248 5249 5250 5250 5251 5251 5252 5252 5253 5254 5255 5256 5258 5259